Regional Weather Roundup
Issued by NWS

Home | Current Version | Previous Version | Text Only | Print | Product List | Glossary Off
Versions: 1 2 3 4 5 6 7 8 9 10 11 12 13 14 15 16 17 18 19 20 21 22 23 24 25 26 27 28 29 30 31 32 33 34 35 36 37 38 39 40 41 42 43 44 45 46 47 48 49 50

000
ASUS43 KLMK 221910
RWRKY
KENTUCKY REGIONAL WEATHER ROUNDUP
NATIONAL WEATHER SERVICE LOUISVILLE KY
300 PM EDT FRI MAY 22 2015

NOTE "FAIR" INDICATES FEW OR NO CLOUDS BELOW 12,000 FEET
WITH NO SIGNIFICANT WEATHER AND/OR OBSTRUCTIONS TO VISIBILITY.

KYZ001>023-026-027-061>063-070>075-222000-
WESTERN AND SOUTH CENTRAL KENTUCKY

CITY           SKY/WX    TMP DP  RH WIND       PRES   REMARKS
PADUCAH        SUNNY     74  46  36 W6        30.27S
HENDERSON      MOSUNNY   73  48  40 W8        30.25F
OWENSBORO      SUNNY     74  50  42 W6        30.27F
HOPKINSVILLE   SUNNY     69  48  46 VRB3      30.27F HAZE
BOWLING GREEN  SUNNY     71  43  36 VRB5      30.28F
GLASGOW        SUNNY     69  42  37 CALM      30.28S
$$

KYZ024-025-028>034-038-045-046-053-222000-
NORTH CENTRAL KENTUCKY

CITY           SKY/WX    TMP DP  RH WIND       PRES   REMARKS
LOUISVILLE/SDF MOSUNNY   74  44  34 SW14G21   30.25S
LOUISVILLE/LOU SUNNY     73  44  35 SW12G20   30.26R
FORT KNOX      SUNNY     72  46  40 W6        30.25S
$$

KYZ035>037-039>044-047>052-055>060-089>105-222000-
NORTHEAST KENTUCKY

CITY           SKY/WX    TMP DP  RH WIND       PRES   REMARKS
LEXINGTON      SUNNY     70  42  36 W8G18     30.26S
COVINGTON      MOSUNNY   71  48  43 SW9       30.22S
FRANKFORT      SUNNY     72  42  34 SW12G17   30.25S
$$

KYZ054-064>069-076>088-106>120-222000-
SOUTHEAST KENTUCKY

CITY           SKY/WX    TMP DP  RH WIND       PRES   REMARKS
JACKSON        SUNNY     68  45  43 VRB3      30.27F
LONDON         SUNNY     69  38  32 W8        30.27F
SOMERSET       SUNNY     66  43  42 CALM      30.29F
MIDDLESBORO    SUNNY     69  44  41 W5        30.27F
MONTICELLO     CLEAR     70  42  36 CALM      30.31S
$$



USA.gov is the U.S. government's official web portal to all federal, state and local government web resources and services.